Siloam Springs, AR

6:55 PM CDT on April 29, 2017 (GMT -0500)
Smith

Weather History for KSLG - October, 2012

Change the Weather History Date:

Tuesday, October 16, 2012

  Actual Average Record
Temperature  
Mean Temperature 66 °F -  
Max Temperature 77 °F 67 °F 86 °F (2011)
Min Temperature 55 °F 46 °F 32 °F (2001)
Cooling Degree Days 1    
Growing Degree Days 16 (Base 50)    
Moisture  
Dew Point 44 °F    
Average Humidity 48    
Maximum Humidity 67    
Minimum Humidity 31    
Precipitation  
Precipitation 0.00 in - - ()
Sea Level Pressure  
Sea Level Pressure 29.82 in    
Wind  
Wind Speed 11 mph (South)    
Max Wind Speed 25 mph    
Max Gust Speed 31 mph    
Visibility 10 miles    
Events      
Averages and records for this station are not official NWS values.
T = Trace of Precipitation, MM = Missing Value Source: NWS Daily Summary

Daily Weather History Graph

Daily Weather History Graph

Search for Another Location

Airport or City:

Trip Planner

Search our weather history database for the weather conditions in past years. The results will help you decide how hot, cold, wet, or windy it might be!

Date:

Astronomy

Oct. 16, 2012 Rise Set
Actual Time 7:26 AM CDT 6:39 PM CDT
Civil Twilight 7:00 AM CDT 7:05 PM CDT
Nautical Twilight 6:30 AM CDT 7:35 PM CDT
Astronomical Twilight 6:00 AM CDT 8:05 PM CDT
Moon 8:46 AM CDT (10/16) 7:29 PM CDT (10/16)
Length of Visible Light 12h 05m
Length of Day
11h 13m
New Moon, 2% of the Moon is Illuminated
Oct 16
New Moon
Oct 21
First Quarter
Oct 29
Full
Nov 6
Last Quarter
Nov 13
New

Hourly Weather History & Observations

Time (CDT) Temp. Dew Point Humidity Pressure Visibility Wind Dir Wind Speed Gust Speed Precip Events Conditions
12:35 AM 59.0 °F 46.4 °F 63% 29.96 in 10.0 mi South 8.1 mph - N/A   Clear
12:55 AM 60.8 °F 46.4 °F 59% 29.96 in 10.0 mi South 8.1 mph - N/A   Clear
1:35 AM 59.0 °F 46.4 °F 63% 29.95 in 10.0 mi South 8.1 mph - N/A   Clear
1:55 AM 57.2 °F 46.4 °F 67% 29.95 in 10.0 mi South 8.1 mph - N/A   Clear
2:15 AM 59.0 °F 46.4 °F 63% 29.94 in 10.0 mi South 9.2 mph - N/A   Clear
2:36 AM 57.2 °F 44.6 °F 63% 29.93 in 10.0 mi South 8.1 mph - N/A   Clear
2:55 AM 57.2 °F 44.6 °F 63% 29.93 in 10.0 mi South 9.2 mph - N/A   Clear
3:15 AM 57.2 °F 44.6 °F 63% 29.92 in 10.0 mi South 8.1 mph - N/A   Clear
3:55 AM 57.2 °F 44.6 °F 63% 29.91 in 10.0 mi SSW 5.8 mph - N/A   Clear
4:15 AM 57.2 °F 44.6 °F 63% 29.91 in 10.0 mi South 5.8 mph - N/A   Clear
4:55 AM 55.4 °F 44.6 °F 67% 29.90 in 10.0 mi South 9.2 mph - N/A   Clear
5:35 AM 57.2 °F 44.6 °F 63% 29.90 in 10.0 mi South 6.9 mph - N/A   Clear
6:15 AM 55.4 °F 42.8 °F 63% 29.90 in 10.0 mi SSW 4.6 mph - N/A   Clear
6:35 AM 55.4 °F 42.8 °F 63% 29.91 in 10.0 mi South 5.8 mph - N/A   Clear
7:15 AM 57.2 °F 42.8 °F 59% 29.91 in 10.0 mi South 6.9 mph - N/A   Clear
7:55 AM 55.4 °F 42.8 °F 63% 29.91 in 10.0 mi South 9.2 mph - N/A   Clear
8:35 AM 57.2 °F 42.8 °F 59% 29.91 in 10.0 mi South 8.1 mph - N/A   Clear
8:55 AM 60.8 °F 44.6 °F 55% 29.91 in 10.0 mi South 9.2 mph - N/A   Clear
9:55 AM 66.2 °F 46.4 °F 49% 29.91 in 10.0 mi South 13.8 mph - N/A   Clear
10:36 AM 69.8 °F 44.6 °F 40% 29.90 in 10.0 mi South 15.0 mph 23.0 mph N/A   Clear
10:55 AM 71.6 °F 44.6 °F 38% 29.90 in 10.0 mi South 19.6 mph 29.9 mph N/A   Clear
11:15 AM 71.6 °F 44.6 °F 38% 29.89 in 10.0 mi South 19.6 mph 25.3 mph N/A   Clear
11:35 AM 73.4 °F 42.8 °F 33% 29.88 in 10.0 mi SSW 17.3 mph 26.5 mph N/A   Clear
11:36 AM 73.4 °F 42.8 °F 33% 29.88 in 10.0 mi SSW 16.1 mph 26.5 mph N/A   Clear
11:55 AM 73.4 °F 42.8 °F 33% 29.86 in 10.0 mi SSW 19.6 mph 26.5 mph N/A   Clear
12:15 PM 73.4 °F 42.8 °F 33% 29.86 in 10.0 mi South 25.3 mph 31.1 mph N/A   Clear
12:55 PM 75.2 °F 42.8 °F 31% 29.84 in 10.0 mi SSW 21.9 mph 28.8 mph N/A   Clear
1:15 PM 75.2 °F 42.8 °F 31% 29.82 in 10.0 mi South 21.9 mph 27.6 mph N/A   Clear
1:55 PM 75.2 °F 44.6 °F 34% 29.80 in 10.0 mi South 23.0 mph 28.8 mph N/A   Clear
2:15 PM 75.2 °F 44.6 °F 34% 29.79 in 10.0 mi South 18.4 mph 24.2 mph N/A   Clear
2:55 PM 75.2 °F 46.4 °F 36% 29.77 in 10.0 mi South 20.7 mph 25.3 mph N/A   Clear
3:15 PM 75.2 °F 44.6 °F 34% 29.75 in 10.0 mi South 18.4 mph 25.3 mph N/A   Clear
4:15 PM 77.0 °F 44.6 °F 32% 29.72 in 10.0 mi South 15.0 mph 24.2 mph N/A   Mostly Cloudy
4:35 PM 75.2 °F 44.6 °F 34% 29.70 in 10.0 mi South 17.3 mph 28.8 mph N/A   Scattered Clouds
4:55 PM 75.2 °F 44.6 °F 34% 29.69 in 10.0 mi South 21.9 mph 25.3 mph N/A   Clear
5:15 PM 73.4 °F 42.8 °F 33% 29.69 in 10.0 mi South 18.4 mph 26.5 mph N/A   Clear
5:35 PM 73.4 °F 42.8 °F 33% 29.68 in 10.0 mi South 17.3 mph 23.0 mph N/A   Clear
5:56 PM 71.6 °F 44.6 °F 38% 29.68 in 10.0 mi South 13.8 mph 21.9 mph N/A   Clear
6:15 PM 71.6 °F 44.6 °F 38% 29.68 in 10.0 mi South 12.7 mph 18.4 mph N/A   Clear
6:35 PM 69.8 °F 44.6 °F 40% 29.68 in 10.0 mi SSE 12.7 mph - N/A   Clear
8:15 PM 66.2 °F 44.6 °F 46% 29.70 in 10.0 mi SSE 9.2 mph - N/A   Overcast
8:35 PM 66.2 °F 44.6 °F 46% 29.71 in 10.0 mi SSE 9.2 mph - N/A   Overcast
9:15 PM 66.2 °F 44.6 °F 46% 29.71 in 10.0 mi South 9.2 mph - N/A   Overcast
9:35 PM 64.4 °F 44.6 °F 49% 29.71 in 10.0 mi South 9.2 mph - N/A   Mostly Cloudy
10:55 PM 60.8 °F 44.6 °F 55% 29.70 in 10.0 mi South 8.1 mph - N/A   Clear
11:16 PM 60.8 °F 46.4 °F 59% 29.69 in 10.0 mi South 8.1 mph - N/A   Clear
11:35 PM 60.8 °F 46.4 °F 59% 29.69 in 10.0 mi South 9.2 mph - N/A   Clear
11:55 PM 60.8 °F 46.4 °F 59% 29.68 in 10.0 mi South 9.2 mph - N/A   Clear